EW8215 Weather Reports


Display with metric or nautical units.
time (UTC)temp
F
wind
direction
speed
MPH
gust
MPH
rain 1hr
in
rain 24hr
in
rain mn
in
humidity
%
barometer
mb
20260906193145 100 174 0.0 2.0 0.00 0.00 0.00 43 1013.0
20260906192641 100 231 3.0 5.0 0.00 0.00 0.00 42 1013.3
20260906192139 98 83 3.0 3.0 0.00 0.00 0.00 44 1013.6
20260906191635 98 179 3.0 3.0 0.00 0.00 0.00 44 1013.5
20260906191134 98 153 0.0 0.0 0.00 0.00 0.00 46 1013.5
20260906190628 97 334 6.0 7.0 0.00 0.00 0.00 46 1013.6
20260906190123 96 129 0.0 0.0 0.00 0.00 0.00 47 1013.7
20260906185622 97 171 6.0 7.0 0.00 0.00 0.00 47 1013.8
20260906185121 96 225 4.0 5.0 0.00 0.00 0.00 47 1013.9
20260906184616 97 131 4.0 7.0 0.00 0.00 0.00 46 1013.7
20260906184111 97 216 7.0 9.0 0.00 0.00 0.00 47 1013.7
20260906183607 96 190 8.0 10.0 0.00 0.00 0.00 47 1013.7
20260906183103 96 186 4.0 5.0 0.00 0.00 0.00 48 1013.9
20260906182557 96 240 6.0 9.0 0.00 0.00 0.00 49 1014.1
20260906182054 96 240 7.0 9.0 0.00 0.00 0.00 48 1014.2
20260906181549 96 151 4.0 7.0 0.00 0.00 0.00 47 1014.2
20260906181045 98 157 0.0 2.0 0.00 0.00 0.00 47 1014.3
20260906180545 96 169 0.0 0.0 0.00 0.00 0.00 48 1014.3
20260906180044 95 217 3.0 7.0 0.00 0.00 0.00 50 1014.4
20260906175543 95 156 2.0 2.0 0.00 0.00 0.00 51 1014.5
20260906175038 96 199 3.0 5.0 0.00 0.00 0.00 50 1014.5
20260906174536 96 203 1.0 2.0 0.00 0.00 0.00 51 1014.7
20260906174031 95 159 3.0 3.0 0.00 0.00 0.00 52 1014.7
20260906173526 95 117 5.0 5.0 0.00 0.00 0.00 50 1015.0
20260906173022 95 158 5.0 7.0 0.00 0.00 0.00 48 1015.0
20260906172516 95 165 4.0 5.0 0.00 0.00 0.00 53 1015.1
20260906172012 94 176 0.0 2.0 0.00 0.00 0.00 53 1015.3
20260906171507 95 159 4.0 5.0 0.00 0.00 0.00 53 1015.3
20260906171002 95 167 3.0 5.0 0.00 0.00 0.00 54 1015.5
20260906170458 93 113 2.0 3.0 0.00 0.00 0.00 57 1015.4
20260906165955 93 174 5.0 7.0 0.00 0.00 0.00 57 1015.4
20260906165448 94 117 7.0 9.0 0.00 0.00 0.00 57 1015.4
20260906164943 94 157 3.0 3.0 0.00 0.00 0.00 54 1015.3
20260906164441 95 223 5.0 7.0 0.00 0.00 0.00 53 1015.5
20260906163939 94 222 2.0 3.0 0.00 0.00 0.00 55 1015.4
20260906163434 93 226 9.0 10.0 0.00 0.00 0.00 58 1015.5
20260906162932 92 203 4.0 7.0 0.00 0.00 0.00 60 1015.5
20260906162431 93 219 7.0 10.0 0.00 0.00 0.00 62 1015.4
20260906161926 92 160 4.0 5.0 0.00 0.00 0.00 64 1015.7
20260906161426 92 161 1.0 2.0 0.00 0.00 0.00 63 1015.5
20260906160925 91 207 5.0 7.0 0.00 0.00 0.00 64 1015.7
20260906160418 90 189 4.0 5.0 0.00 0.00 0.00 65 1015.6
20260906155916 89 169 3.0 3.0 0.00 0.00 0.00 68 1015.6
20260906155405 90 139 4.0 5.0 0.00 0.00 0.00 66 1015.6
20260906154902 89 168 2.0 2.0 0.00 0.00 0.00 68 1015.5
20260906154401 88 135 4.0 5.0 0.00 0.00 0.00 70 1015.6
20260906153900 87 166 2.0 2.0 0.00 0.00 0.00 73 1015.5
20260906153358 86 182 4.0 5.0 0.00 0.00 0.00 75 1015.5
20260906152854 85 156 0.0 0.0 0.00 0.00 0.00 77 1015.5
20260906152349 85 152 4.0 5.0 0.00 0.00 0.00 76 1015.5
20260906151848 85 166 4.0 5.0 0.00 0.00 0.00 77 1015.4
20260906151344 85 178 2.0 3.0 0.00 0.00 0.00 78 1015.3
20260906150840 86 162 2.0 3.0 0.00 0.00 0.00 77 1015.2
20260906150335 85 143 3.0 3.0 0.00 0.00 0.00 78 1015.4
20260906145834 84 174 3.0 3.0 0.00 0.00 0.00 80 1015.3
20260906145332 83 181 2.0 2.0 0.00 0.00 0.00 82 1015.5
20260906144827 82 150 2.0 2.0 0.00 0.00 0.00 83 1015.5
20260906144322 82 144 4.0 5.0 0.00 0.00 0.00 84 1015.2
20260906143822 82 152 1.0 2.0 0.00 0.00 0.00 85 1015.4
20260906143319 81 152 2.0 2.0 0.00 0.00 0.00 85 1015.4
20260906142814 81 157 1.0 2.0 0.00 0.00 0.00 85 1015.5
20260906142309 81 151 0.0 0.0 0.00 0.00 0.00 86 1015.3
20260906141808 81 172 2.0 3.0 0.00 0.00 0.00 86 1015.3
20260906141303 80 157 2.0 3.0 0.00 0.00 0.00 86 1015.4
20260906140801 80 160 2.0 3.0 0.00 0.00 0.00 87 1015.2
20260906140257 80 137 3.0 3.0 0.00 0.00 0.00 86 1015.1
20260906135754 80 160 2.0 2.0 0.00 0.00 0.00 87 1015.1
20260906135249 80 164 4.0 5.0 0.00 0.00 0.00 87 1015.1
20260906134745 80 148 2.0 2.0 0.00 0.00 0.00 87 1015.1
20260906134240 80 159 3.0 5.0 0.00 0.00 0.00 88 1015.0
20260906133736 79 139 2.0 3.0 0.00 0.00 0.00 88 1015.1
20260906133231 79 110 4.0 5.0 0.00 0.00 0.00 88 1014.8
20260906132726 79 129 0.0 2.0 0.00 0.00 0.00 89 1014.9
20260906132222 79 146 4.0 5.0 0.00 0.00 0.00 88 1014.6
20260906131717 78 119 4.0 5.0 0.00 0.00 0.00 90 1014.8
20260906131212 77 139 3.0 3.0 0.00 0.00 0.00 91 1014.8
20260906130708 77 126 3.0 3.0 0.00 0.00 0.00 91 1014.7
20260906130203 77 121 2.0 3.0 0.00 0.00 0.00 92 1014.7
20260906125701 77 127 3.0 3.0 0.00 0.00 0.00 92 1014.5
20260906125159 77 133 2.0 3.0 0.00 0.00 0.00 92 1014.4
20260906124655 76 137 2.0 3.0 0.00 0.00 0.00 93 1014.5
20260906124150 76 139 2.0 3.0 0.00 0.00 0.00 93 1014.2
20260906123649 76 141 0.0 0.0 0.00 0.00 0.00 93 1014.2
20260906123145 76 137 0.0 0.0 0.00 0.00 0.00 93 1014.1
20260906122643 76 135 1.0 2.0 0.00 0.00 0.00 93 1014.2
20260906122139 76 137 0.0 0.0 0.00 0.00 0.00 93 1014.1
20260906121635 75 142 0.0 0.0 0.00 0.00 0.00 93 1013.9
20260906121131 75 136 0.0 0.0 0.00 0.00 0.00 93 1014.1
20260906120627 75 142 0.0 0.0 0.00 0.00 0.00 93 1014.0
20260906120124 75 132 0.0 0.0 0.00 0.00 0.00 93 1013.9
20260906115618 75 144 0.0 0.0 0.00 0.00 0.00 93 1013.9
20260906115114 75 147 0.0 0.0 0.00 0.00 0.00 93 1013.9
20260906114613 75 147 0.0 0.0 0.00 0.00 0.00 93 1013.7
20260906114108 75 149 0.0 0.0 0.00 0.00 0.00 93 1013.6
20260906113608 75 150 0.0 0.0 0.00 0.00 0.00 93 1013.7
20260906113103 75 150 0.0 0.0 0.00 0.00 0.00 93 1013.3
20260906112603 75 150 0.0 0.0 0.00 0.00 0.00 92 1013.3
20260906112100 75 148 0.0 0.0 0.00 0.00 0.00 92 1013.3
20260906111559 75 143 0.0 0.0 0.00 0.00 0.00 92 1013.2
20260906111054 76 144 0.0 0.0 0.00 0.00 0.00 92 1013.2
20260906110549 76 144 0.0 0.0 0.00 0.00 0.00 91 1013.2
20260906110048 76 142 0.0 0.0 0.00 0.00 0.00 91 1013.2
20260906105543 76 146 0.0 0.0 0.00 0.00 0.00 91 1013.0
20260906105039 76 145 0.0 0.0 0.00 0.00 0.00 90 1013.0
20260906104537 76 149 0.0 0.0 0.00 0.00 0.00 90 1012.9
20260906104032 76 148 0.0 0.0 0.00 0.00 0.00 90 1013.0
20260906103530 76 148 0.0 0.0 0.00 0.00 0.00 90 1013.0
20260906103025 76 147 0.0 0.0 0.00 0.00 0.00 90 1013.0
20260906102526 76 148 0.0 0.0 0.00 0.00 0.00 89 1012.9
20260906102020 77 148 0.0 0.0 0.00 0.00 0.00 89 1013.1
20260906101515 76 147 0.0 0.0 0.00 0.00 0.00 90 1013.1
20260906101010 76 149 0.0 0.0 0.00 0.00 0.00 90 1012.9
20260906100506 76 144 0.0 0.0 0.00 0.00 0.00 90 1013.0
20260906095959 77 145 0.0 0.0 0.00 0.00 0.00 89 1013.0
20260906095455 77 146 0.0 0.0 0.00 0.00 0.00 90 1013.0
20260906094950 77 149 0.0 0.0 0.00 0.00 0.00 89 1012.8
20260906094449 77 146 0.0 0.0 0.00 0.00 0.00 89 1012.8
20260906093946 77 146 0.0 0.0 0.00 0.00 0.00 89 1012.9
20260906093442 77 145 0.0 0.0 0.00 0.00 0.00 89 1012.9
20260906092941 77 143 0.0 0.0 0.00 0.00 0.00 88 1012.7
20260906092436 77 138 0.0 0.0 0.00 0.00 0.00 88 1012.6
20260906091931 77 125 0.0 0.0 0.00 0.00 0.00 88 1012.8
20260906091427 77 139 0.0 0.0 0.00 0.00 0.00 88 1012.8
20260906090923 77 145 0.0 0.0 0.00 0.00 0.00 88 1012.6
20260906090418 77 146 0.0 0.0 0.00 0.00 0.00 88 1012.6
20260906085918 77 147 0.0 0.0 0.00 0.00 0.00 88 1012.7
20260906085412 77 138 0.0 0.0 0.00 0.00 0.00 88 1012.9
20260906084911 77 141 0.0 0.0 0.00 0.00 0.00 88 1012.8
20260906084407 77 144 0.0 0.0 0.00 0.00 0.00 88 1012.6
20260906083905 77 144 0.0 0.0 0.00 0.00 0.00 88 1012.9
20260906083401 77 144 0.0 0.0 0.00 0.00 0.00 88 1012.7
20260906082901 77 145 0.0 0.0 0.00 0.00 0.00 87 1012.7
20260906082400 77 143 0.0 0.0 0.00 0.00 0.00 87 1012.9
20260906081857 77 143 0.0 0.0 0.00 0.00 0.00 87 1012.8
20260906081352 77 147 0.0 0.0 0.00 0.00 0.00 87 1012.8
20260906080848 77 149 0.0 0.0 0.00 0.00 0.00 87 1012.9
20260906080344 77 139 0.0 0.0 0.00 0.00 0.00 87 1012.8
20260906075843 78 150 0.0 0.0 0.00 0.00 0.00 86 1012.9
20260906075338 78 151 0.0 0.0 0.00 0.00 0.00 86 1012.8
20260906074834 78 150 0.0 0.0 0.00 0.00 0.00 86 1013.1
20260906074333 78 152 0.0 0.0 0.00 0.00 0.00 85 1013.0
20260906073832 78 149 0.0 0.0 0.00 0.00 0.00 85 1013.0
20260906073327 78 153 0.0 0.0 0.00 0.00 0.00 85 1013.2
20260906072824 78 160 0.0 0.0 0.00 0.00 0.00 86 1013.3
20260906072319 77 139 0.0 0.0 0.00 0.00 0.00 86 1013.4
20260906071815 77 143 0.0 0.0 0.00 0.00 0.00 86 1013.6
20260906071310 78 143 0.0 0.0 0.00 0.00 0.00 86 1013.7
20260906070807 78 129 4.0 5.0 0.00 0.00 0.00 86 1013.7
20260906070302 78 132 0.0 0.0 0.00 0.00 0.00 85 1013.7
20260906065801 78 129 0.0 0.0 0.00 0.00 0.00 85 1013.6
20260906065257 78 144 0.0 0.0 0.00 0.00 0.00 85 1013.7
20260906064752 78 152 0.0 0.0 0.00 0.00 0.00 85 1013.7
20260906064248 78 137 0.0 0.0 0.00 0.00 0.00 85 1013.9
20260906063743 78 125 0.0 0.0 0.00 0.00 0.00 84 1013.8
20260906063238 78 146 0.0 0.0 0.00 0.00 0.00 84 1013.8
20260906062733 78 150 0.0 0.0 0.00 0.00 0.00 83 1014.0
20260906062233 78 153 0.0 0.0 0.00 0.00 0.00 83 1013.8
20260906061729 78 150 0.0 0.0 0.00 0.00 0.00 84 1013.7
20260906061225 78 143 0.0 0.0 0.00 0.00 0.00 83 1014.0
20260906060720 78 150 0.0 0.0 0.00 0.00 0.00 83 1014.1
20260906060217 79 151 0.0 0.0 0.00 0.00 0.00 82 1014.2
20260906055713 79 148 0.0 0.0 0.00 0.00 0.00 82 1013.8
20260906055208 79 141 0.0 0.0 0.00 0.00 0.00 81 1013.8
20260906054703 79 139 0.0 0.0 0.00 0.00 0.00 81 1013.9
20260906054158 80 138 0.0 0.0 0.00 0.00 0.00 80 1013.8
20260906053655 80 127 0.0 0.0 0.00 0.00 0.00 80 1013.8
20260906053149 80 145 0.0 0.0 0.00 0.00 0.00 79 1014.1
20260906052645 80 155 2.0 2.0 0.00 0.00 0.00 79 1013.8
20260906052141 80 150 0.0 0.0 0.00 0.00 0.00 79 1013.9
20260906051637 80 155 0.0 0.0 0.00 0.00 0.00 79 1013.9
20260906051137 80 141 3.0 3.0 0.00 0.00 0.00 78 1013.6
20260906050632 80 155 0.0 0.0 0.00 0.00 0.00 78 1013.8
20260906050127 80 146 0.0 2.0 0.00 0.00 0.00 78 1013.9
20260906045626 80 143 2.0 2.0 0.00 0.00 0.00 78 1013.9
20260906045121 80 148 0.0 0.0 0.00 0.00 0.00 78 1014.0
20260906044617 80 158 1.0 2.0 0.00 0.00 0.00 77 1013.8
20260906044112 80 147 0.0 2.0 0.00 0.00 0.00 77 1013.7
20260906043609 81 152 1.0 2.0 0.00 0.00 0.00 77 1013.8
20260906043105 81 155 0.0 2.0 0.00 0.00 0.00 76 1013.7
20260906042603 81 147 0.0 0.0 0.00 0.00 0.00 76 1013.6
20260906042057 81 143 2.0 2.0 0.00 0.00 0.00 76 1013.7
20260906041555 81 155 2.0 3.0 0.00 0.00 0.00 76 1013.8
20260906041049 81 146 1.0 3.0 0.00 0.00 0.00 75 1014.0
20260906040544 81 120 3.0 3.0 0.00 0.00 0.00 75 1013.8
20260906040040 81 140 2.0 3.0 0.00 0.00 0.00 75 1013.9
20260906035534 82 166 2.0 3.0 0.00 0.00 0.00 75 1013.8
20260906035030 82 142 2.0 2.0 0.00 0.00 0.00 75 1013.9
20260906034530 82 151 2.0 3.0 0.00 0.00 0.00 75 1013.8
20260906034025 82 143 3.0 5.0 0.00 0.00 0.00 74 1013.8
20260906033520 82 130 4.0 5.0 0.00 0.00 0.00 74 1013.9
20260906033016 82 138 5.0 7.0 0.00 0.00 0.00 74 1013.9
20260906032512 82 124 4.0 5.0 0.00 0.00 0.00 73 1014.0
20260906032007 82 144 7.0 9.0 0.00 0.00 0.00 73 1013.9
20260906031502 82 114 5.0 7.0 0.00 0.00 0.00 73 1013.7
20260906030957 82 120 7.0 9.0 0.00 0.00 0.00 72 1013.7
20260906030451 82 122 3.0 3.0 0.00 0.00 0.00 72 1013.6
20260906025945 82 140 6.0 7.0 0.00 0.00 0.00 72 1013.5
20260906025440 83 105 4.0 5.0 0.00 0.00 0.00 71 1013.4
20260906024939 83 146 7.0 9.0 0.00 0.00 0.00 71 1013.6
20260906024439 83 114 8.0 9.0 0.00 0.00 0.00 70 1013.2
20260906023938 84 106 6.0 7.0 0.00 0.00 0.00 70 1013.3
20260906023435 84 128 8.0 9.0 0.00 0.00 0.00 69 1013.1
20260906022930 84 108 11.0 15.0 0.00 0.00 0.00 69 1013.2
20260906022426 85 128 6.0 9.0 0.00 0.00 0.00 69 1012.9
20260906021920 85 100 6.0 9.0 0.00 0.00 0.00 69 1012.7
20260906021420 85 147 3.0 3.0 0.00 0.00 0.00 69 1012.7
20260906020915 85 123 6.0 9.0 0.00 0.00 0.00 68 1012.8
20260906020414 86 137 8.0 10.0 0.00 0.00 0.00 68 1012.6
20260906015909 86 114 11.0 15.0 0.00 0.00 0.00 68 1012.4
20260906015408 86 102 9.0 10.0 0.00 0.00 0.00 68 1012.4
20260906014903 86 104 9.0 12.0 0.00 0.00 0.00 67 1012.3
20260906014402 86 123 5.0 7.0 0.00 0.00 0.00 67 1012.3
20260906013859 87 156 10.0 12.0 0.00 0.00 0.00 66 1012.4
20260906013354 87 108 12.0 15.0 0.00 0.00 0.00 65 1012.2
20260906012849 88 100 9.0 15.0 0.00 0.00 0.00 64 1012.1
20260906012344 89 114 7.0 7.0 0.00 0.00 0.00 61 1012.2
20260906011844 89 148 15.0 19.0 0.00 0.00 0.00 60 1012.2
20260906011339 89 113 7.0 9.0 0.00 0.00 0.00 58 1011.9
20260906010835 89 116 9.0 10.0 0.00 0.00 0.00 58 1012.0
20260906010331 89 116 6.0 9.0 0.00 0.00 0.00 57 1012.0
20260906005826 90 125 14.0 17.0 0.00 0.00 0.00 57 1012.0
20260906005325 90 123 6.0 7.0 0.00 0.00 0.00 56 1012.1
20260906004824 90 122 12.0 14.0 0.00 0.00 0.00 56 1012.1
20260906004319 91 119 9.0 10.0 0.00 0.00 0.00 55 1012.1
20260906003814 91 116 12.0 15.0 0.00 0.00 0.00 54 1012.0
20260906003309 91 140 11.0 15.0 0.00 0.00 0.00 54 1012.0
20260906002805 91 87 11.0 12.0 0.00 0.00 0.00 54 1012.2
20260906002306 91 128 12.0 14.0 0.00 0.00 0.00 54 1011.8
20260906001800 92 129 6.0 9.0 0.00 0.00 0.00 53 1011.8
20260906001300 92 103 14.0 17.0 0.00 0.00 0.00 53 1011.9
20260906000755 92 111 13.0 17.0 0.00 0.00 0.00 53 1011.9
20260906000249 93 97 18.0 26.0 0.00 0.00 0.00 53 1011.8
20260905235744 93 99 9.0 12.0 0.00 0.00 0.00 53 1011.9
20260905235244 93 131 14.0 17.0 0.00 0.00 0.00 53 1011.9
20260905234740 93 109 11.0 14.0 0.00 0.00 0.00 52 1011.8
20260905234235 94 121 4.0 7.0 0.00 0.00 0.00 51 1011.7
20260905233730 94 122 11.0 14.0 0.00 0.00 0.00 50 1011.5
20260905233229 94 139 3.0 3.0 0.00 0.00 0.00 51 1011.5
20260905232724 94 132 9.0 12.0 0.00 0.00 0.00 50 1011.6
20260905232220 94 95 8.0 12.0 0.00 0.00 0.00 50 1011.4
20260905231716 94 132 7.0 12.0 0.00 0.00 0.00 50 1011.6
20260905231211 94 142 9.0 12.0 0.00 0.00 0.00 51 1011.4
20260905230708 94 121 11.0 14.0 0.00 0.00 0.00 51 1011.3
20260905230205 95 125 7.0 9.0 0.00 0.00 0.00 50 1011.4
20260905225704 95 112 7.0 9.0 0.00 0.00 0.00 50 1011.4
20260905225200 95 132 7.0 10.0 0.00 0.00 0.00 51 1011.6
20260905224659 95 135 7.0 9.0 0.00 0.00 0.00 51 1011.4
20260905224154 95 129 6.0 7.0 0.00 0.00 0.00 50 1011.6
20260905223651 95 112 10.0 12.0 0.00 0.00 0.00 50 1011.4
20260905223147 96 124 10.0 12.0 0.00 0.00 0.00 50 1011.3
20260905222642 97 130 2.0 3.0 0.00 0.00 0.00 49 1011.5
20260905222137 97 121 8.0 10.0 0.00 0.00 0.00 50 1011.3
20260905221633 98 119 6.0 9.0 0.00 0.00 0.00 49 1011.2
20260905221129 98 99 5.0 7.0 0.00 0.00 0.00 47 1011.2
20260905220625 96 137 3.0 3.0 0.00 0.00 0.00 49 1011.3
20260905220121 96 127 2.0 3.0 0.00 0.00 0.00 49 1011.2
20260905215620 96 28 4.0 5.0 0.00 0.00 0.00 48 1011.2
20260905215116 95 145 1.0 2.0 0.00 0.00 0.00 49 1011.3
20260905214612 95 133 9.0 12.0 0.00 0.00 0.00 49 1011.1
20260905214111 96 123 5.0 7.0 0.00 0.00 0.00 50 1011.2
20260905213607 97 163 11.0 14.0 0.00 0.00 0.00 48 1011.3
20260905213102 97 113 2.0 3.0 0.00 0.00 0.00 48 1011.2
20260905212557 99 119 9.0 10.0 0.00 0.00 0.00 47 1011.2
20260905212057 101 169 7.0 9.0 0.00 0.00 0.00 45 1011.4
20260905211552 101 121 5.0 5.0 0.00 0.00 0.00 45 1011.4
20260905211048 101 140 5.0 7.0 0.00 0.00 0.00 44 1011.6
20260905210543 100 102 9.0 12.0 0.00 0.00 0.00 45 1011.6
20260905210038 100 165 9.0 10.0 0.00 0.00 0.00 41 1011.5
20260905205537 100 190 4.0 5.0 0.00 0.00 0.00 41 1011.6
20260905205036 101 152 6.0 9.0 0.00 0.00 0.00 41 1011.8
20260905204531 102 146 6.0 7.0 0.00 0.00 0.00 42 1011.8
20260905204026 102 86 0.0 2.0 0.00 0.00 0.00 40 1012.0
20260905203526 100 159 0.0 0.0 0.00 0.00 0.00 43 1012.1
20260905203021 99 135 3.0 3.0 0.00 0.00 0.00 44 1012.2
20260905202516 100 148 6.0 9.0 0.00 0.00 0.00 44 1012.1
20260905202012 100 151 3.0 3.0 0.00 0.00 0.00 44 1012.1
20260905201508 99 156 0.0 2.0 0.00 0.00 0.00 44 1012.4
20260905201007 99 125 4.0 5.0 0.00 0.00 0.00 45 1012.1
20260905200503 99 144 2.0 5.0 0.00 0.00 0.00 45 1012.4
20260905200001 99 169 2.0 3.0 0.00 0.00 0.00 44 1012.4
20260905195456 98 117 5.0 9.0 0.00 0.00 0.00 47 1012.5
20260905194952 99 162 2.0 5.0 0.00 0.00 0.00 45 1012.7
20260905194451 99 210 5.0 9.0 0.00 0.00 0.00 45 1012.6
20260905193946 100 180 4.0 5.0 0.00 0.00 0.00 45 1012.6
20260905193446 100 203 2.0 3.0 0.00 0.00 0.00 44 1013.0